Home   Weather   Taipei   Past weeks

Flag for Taiwan Past Weather in Taipei, Taiwan — Yesterday and Last 2 Weeks

Now
81 °F

Lots of rain. Cloudy.


Feels Like: 85 °F
Forecast: 81 / 90 °F
Wind: 45 mph from East

Location: Sungshan / Taipei

Current Time: Sep 27, 2016 at 4:47:50 PM

Latest Report: Sep 27, 2016 at 4:30 PM


Visibility: 2 mi

Pressure: 28.97 "Hg

Humidity: 79%

Dew Point: 73 °F

Location of TaipeiLocation

Past Weather in Taipei — Graph

°F

Taipei Temperature Yesterday

Maximum temperature yesterday: 88 °F (at 11:52 AM)
Minimum temperature yesterday: 77 °F (at 2:00 AM)
Average temperature yesterday: 82 °F

High & Low Weather Summary for the Past Weeks

 TemperatureHumidityPressure
High95 °F (Sep 16, 12:00 PM)89% (Sep 17, 4:00 AM)30.01 "Hg (Sep 17, 4:00 AM)
Low75 °F (Sep 18, 4:00 AM)39% (Sep 16, 2:00 PM)28.94 "Hg (Sep 27, 2:00 PM)
Average81 °F71%29.76 "Hg
* Reported Sep 12 3:00 PM — Sep 27 3:30 PM, Taipei, Weather by CustomWeather, © 2016

Note: Actual official high and low records may vary slightly from our data, if they occured in-between our weather recording intervals... More about our weather records

Advertising

Taipei Weather History for the Previous 24 Hours

Scroll right to see more
 ConditionsComfort  
Time TempWeatherWind HumidityBarometerVisibility
3:30 PM
Tue, Sep 27
81 °FLots of rain. Cloudy.38 mph79%28.97 "Hg1 mi
3:00 PM79 °FLots of rain. Mostly cloudy.35 mph79%28.94 "Hg1 mi
2:48 PM79 °FLots of rain. Cloudy.36 mph79%28.97 "Hg1 mi
2:30 PM79 °FLots of rain. Cloudy.38 mph84%28.97 "Hg1 mi
2:00 PM79 °FLots of rain. Cloudy.39 mph84%28.94 "Hg0 mi
1:54 PM81 °FLots of rain. Cloudy.39 mph79%28.97 "Hg1 mi
1:30 PM79 °FLots of rain. Cloudy.37 mph84%29.00 "Hg1 mi
1:04 PM79 °FLots of rain. Cloudy.35 mph84%29.03 "Hg1 mi
12:52 PM79 °FLots of rain. Cloudy.35 mph84%29.03 "Hg1 mi
12:30 PM81 °FRain showers. Cloudy.26 mph74%29.09 "Hg1 mi
12:00 PM81 °FRain showers. Cloudy.25 mph79%29.15 "Hg1 mi
11:30 AM81 °FRain showers. Broken clouds.29 mph79%29.18 "Hg1 mi
11:00 AM81 °FRain showers. Broken clouds.24 mph79%29.24 "Hg1 mi
10:30 AM82 °FRain showers. Broken clouds.20 mph79%29.30 "Hg2 mi
10:00 AM82 °FRain showers. Broken clouds.20 mph79%29.33 "Hg1 mi
9:30 AM82 °FRain showers. Broken clouds.24 mph79%29.33 "Hg1 mi
9:00 AM82 °FRain showers. Broken clouds.21 mph79%29.36 "Hg1 mi
8:30 AM82 °FRain showers. Broken clouds.17 mph79%29.39 "Hg2 mi
8:00 AM82 °FRain showers. Broken clouds.17 mph79%29.39 "Hg2 mi
7:30 AM82 °FSprinkles. Partly sunny.15 mph74%29.42 "Hg4 mi
7:00 AM82 °FSprinkles. Partly sunny.17 mph74%29.45 "Hg2 mi
6:30 AM81 °FSprinkles. Partly sunny.17 mph79%29.45 "Hg3 mi
6:03 AM82 °FSprinkles. Partly sunny.16 mph74%29.47 "Hg3 mi
5:00 AM82 °FSprinkles. Passing clouds.16 mph74%29.47 "HgN/A
4:00 AM81 °FSprinkles. Passing clouds.10 mph79%29.50 "Hg5 mi
3:00 AM82 °FSprinkles. Passing clouds.13 mph74%29.53 "HgN/A
2:00 AM82 °FSprinkles. Partly cloudy.12 mph79%29.59 "HgN/A
1:00 AM82 °FSprinkles. Partly cloudy.10 mph74%29.59 "HgN/A
12:00 AM82 °FSprinkles. Partly cloudy.10 mph74%29.62 "HgN/A
11:30 PM
Mon, Sep 26
82 °FSprinkles. Partly cloudy.13 mph74%29.65 "Hg5 mi
11:00 PM82 °FSprinkles. Partly cloudy.10 mph74%29.65 "HgN/A
10:30 PM82 °FSprinkles. Partly cloudy.9 mph74%29.65 "HgN/A
10:00 PM82 °FSprinkles. Partly cloudy.13 mph74%29.68 "HgN/A
9:00 PM82 °FSprinkles. Partly cloudy.12 mph74%29.68 "Hg6 mi
8:30 PM82 °FSprinkles. Partly cloudy.9 mph74%29.68 "Hg6 mi
8:00 PM82 °FSprinkles. Partly cloudy.12 mph74%29.68 "Hg4 mi
7:30 PM82 °FSprinkles. Passing clouds.8 mph74%29.68 "Hg5 mi
7:00 PM82 °FSprinkles. Passing clouds.9 mph74%29.68 "Hg4 mi
6:30 PM82 °FSprinkles. Passing clouds.9 mph74%29.68 "Hg4 mi
6:00 PM82 °FSprinkles. Passing clouds.6 mph74%29.68 "Hg4 mi
5:30 PM82 °FSprinkles. Partly sunny.9 mph74%29.68 "Hg4 mi
5:00 PM82 °FSprinkles. Partly sunny.8 mph74%29.65 "Hg4 mi
4:30 PM82 °FSprinkles. Partly sunny.10 mph74%29.65 "Hg5 mi
4:00 PM82 °FSprinkles. Partly sunny.10 mph74%29.65 "Hg5 mi
Weather by CustomWeather, © 2016

See weather overviewHow to use our weather pages